Location: McMath-Hulbert Observatory
(42.6964°N, 83.3187°W)
Time: 13:01:49
(UTC-04:00)

Daily predictions for brighter satellites

Satellite Brightness Start Highest point End
(mag) Time Altitude Azimuth Time Altitude Azimuth Time Altitude Azimuth
ALOS 3.6 21:41:10 10° SSW 21:45:33 40° W 21:49:56 10° NNW
Aureole 3 4.3 21:40:58 10° S 21:47:07 59° E 21:51:59 10° NNE
Tiangong 1 1.1 21:45:05 10° WSW 21:48:08 55° SSE 21:51:11 10° E
Cosmos 1939 Rocket 2.8 21:44:18 10° SSE 21:48:10 66° ENE 21:52:02 10° N
Cosmos 2219 3.2 21:43:12 10° SSW 21:48:56 74° ESE 21:54:41 10° NNE
Cosmos 2237 Rocket 3.6 21:46:07 10° N 21:50:55 27° NE 21:55:40 10° ESE
OAO 2 Rocket 4.3 21:48:35 10° SW 21:53:13 31° SSE 21:57:53 10° ESE
Cosmos 2150 Rocket 4.5 21:49:49 10° S 21:54:56 44° ESE 22:00:07 10° NNE
Cosmos 2333 4.4 21:50:42 10° NNW 21:56:24 63° ENE 22:02:06 10° SE
Cosmos 2322 4.5 21:52:24 10° NNW 21:57:56 52° WSW 22:03:25 10° S
deb Chang Zheng 4 3.5 21:54:12 10° NNE 21:58:34 80° ESE 22:02:55 10° S
CZ-4 SHROUD 3.9 21:56:14 10° SE 21:59:11 39° ENE 22:02:09 10° N
ATLAS 2AS CENTAUR R/B 3.8 21:53:27 10° SSE 21:59:28 27° ESE 22:05:51 10° NE
Sich 1 3.8 21:55:56 10° SSE 21:59:55 35° E 22:03:54 10° NNE
Cosmos 2360 Rocket 3.1 21:54:36 10° NW 22:00:01 48° WSW 22:05:25 10° S
Cosmos 1151 Rocket 3.7 21:56:40 10° NNW 22:00:55 56° W 22:05:09 10° S
Cosmos 1271 Rocket 3.9 21:58:55 10° NNE 22:02:17 28° ENE 22:05:31 11° SE
Cosmos 1328 3.8 21:59:55 10° S 22:03:52 88° W 22:07:51 10° N
Cosmos 1626 4.3 22:02:44 10° ESE 22:03:54 11° E 22:05:05 10° ENE
ATLAS 3B R/B 4.0 22:00:16 10° NNW 22:06:27 30° NE 22:12:18 10° E
ERS-1 Rocket 3.6 22:02:20 10° S 22:07:16 56° W 22:12:15 10° NNW
Cosmos 1633 Rocket 3.6 22:03:38 10° SSE 22:07:42 39° E 22:11:48 10° NNE
YAOGAN 6 3.4 22:04:58 11° SE 22:08:14 36° ENE 22:11:33 10° N
ERBS 3.0 22:05:16 10° SSW 22:08:28 34° SE 22:11:40 10° ENE
Cosmos 2242 Rocket 4.2 22:08:57 10° N 22:13:13 42° ENE 22:17:07 12° SSE
Envisat 3.1 22:09:34 10° S 22:14:38 79° WSW 22:19:45 10° NNW
Cosmos 1703 4.1 22:14:44 11° SSE 22:18:00 32° E 22:21:32 10° NNE
SL-14 R/B 3.3 22:15:35 10° S 22:19:30 65° E 22:23:30 10° NNE
NOSS 3-1 (C) 3.6 22:15:55 10° SW 22:21:48 80° NW 22:28:25 10° NE
USA 245 3.1 22:21:00 18° ESE 22:22:11 28° ENE 22:24:10 10° N
Meteor 1-27 4.2 22:17:14 10° N 22:22:56 88° E 22:28:32 10° S
Cosmos 1805 Rocket 3.7 22:20:58 10° SSW 22:25:24 77° W 22:29:52 10° N
PSLV R/B 3.2 22:23:17 12° S 22:26:06 77° WSW 22:29:09 10° NNW
USA 32 4.3 22:22:59 10° N 22:28:09 53° E 22:32:31 14° SSE
Cosmos 220 Rocket 4.1 22:24:49 10° S 22:29:08 59° ESE 22:33:31 10° NNE
Cosmos 2227 Rocket 2.6 22:25:07 10° S 22:30:23 42° ESE 22:35:43 10° NE
Cosmos 1300 3.1 22:28:04 10° NNW 22:31:54 63° W 22:35:41 10° S
Cosmos 1937 Rocket 3.5 22:27:35 10° S 22:32:45 67° ESE 22:37:55 10° NNE
MetOp-A 4.2 22:30:23 10° SSE 22:35:42 81° WSW 22:41:05 10° NNW
Cosmos 990 Rocket 4.1 22:33:42 10° S 22:38:40 53° ESE 22:43:40 10° NNE
H-2A R/B 3.8 22:38:09 10° SSW 22:42:11 31° W 22:46:13 10° NW
Cosmos 292 Rocket 3.8 22:37:32 10° NNW 22:42:18 78° WSW 22:46:00 17° SSE
Cosmos 1707 Rocket 4.3 22:39:33 10° NNW 22:43:48 51° W 22:48:03 10° S
SPOT 5 3.5 22:40:20 10° S 22:44:50 51° W 22:49:38 10° NNW
SL-16 R/B 3.3 22:41:41 10° N 22:46:46 32° NE 22:50:40 15° ESE
Cosmos 1666 Rocket 4.1 22:44:10 10° SSW 22:48:31 59° W 22:52:55 10° N
CZ-4B R/B 3.5 22:43:20 10° NNE 22:48:37 83° ESE 22:53:46 10° SSW
ARGOS 3.1 22:44:45 17° SSE 22:48:59 79° ENE 22:54:23 10° N
Cosmos 2333 Rocket 2.2 22:45:54 10° NNW 22:51:41 84° ENE 22:55:43 21° SSE
Cosmos 1455 2.5 22:50:18 10° N 22:54:01 49° E 22:55:49 27° SE
OTV 4 1.5 22:52:27 10° SW 22:54:46 27° S 22:54:46 27° S
Cosmos 1726 3.3 22:52:21 10° NNW 22:55:56 40° W 22:59:12 12° SSW
Cosmos 1241 Rocket 4.4 22:50:33 10° SSW 22:56:43 76° ESE 23:02:59 10° NE
Cosmos 2297 Rocket 2.4 22:51:53 12° S 22:56:49 49° ESE 23:02:15 10° NE
Cosmos 1346 3.0 22:57:45 32° S 22:58:56 64° E 23:01:57 10° NNE
Cosmos 2219 Rocket 2.4 22:53:33 10° NNW 22:59:07 66° WSW 23:03:06 19° S
DELTA 2 R/B(2) 4.2 22:58:03 10° WSW 22:59:29 37° SSW 22:59:29 37° SSW
Landsat 7 4.0 22:57:59 23° SSE 23:00:48 62° ENE 23:05:31 10° N
Cosmos 1470 Rocket 3.4 22:59:12 19° S 23:02:18 78° E 23:06:38 10° N
Cosmos 1933 Rocket 3.5 23:00:00 19° S 23:03:13 76° E 23:07:41 10° N
Meteor 2-10 4.3 22:57:27 10° NNW 23:03:13 80° W 23:07:31 18° S
COSMOS 2428 4.2 22:58:23 10° NW 23:03:16 30° WSW 23:08:10 10° SSW
Meteor 1-4 Rocket 3.6 23:00:53 10° NNW 23:04:26 42° W 23:06:57 17° SSW
NOSS 0 Rocket 4.1 22:59:13 10° NNW 23:05:20 69° WSW 23:09:35 21° S
Cosmos 44 Rocket 4.5 23:04:46 24° SE 23:05:44 25° ESE 23:09:58 10° ENE
Lacrosse 4 Rocket 2.4 23:02:28 10° NNW 23:06:40 40° NE 23:08:55 23° ESE
SL-08 RB Rocket 3.7 23:05:02 23° S 23:07:49 81° WSW 23:12:21 10° NNW
Nadezhda 1 Rocket 3.9 23:01:52 10° N 23:07:59 85° E 23:12:17 21° S
Cosmos 1269 Rocket 4.5 23:04:34 10° N 23:09:45 50° ENE 23:12:32 26° SE
Cosmos 1933 4.3 23:08:45 10° N 23:12:28 33° ENE 23:13:41 27° ESE
Terra 1.9 23:14:21 29° SE 23:16:41 62° ENE 23:21:24 10° N
COSMOS 2455 3.0 23:12:24 10° NNW 23:18:26 66° ENE 23:21:50 27° SE
H-2A R/B 2.2 23:15:25 27° SSE 23:18:27 75° ENE 23:23:55 10° N
Cosmos 1745 Rocket 4.3 23:17:01 10° SSW 23:23:11 67° W 23:29:20 10° N
Cosmos 1980 4.0 23:18:01 10° NNW 23:23:34 58° WSW 23:26:49 25° S
Tiangong 1 0.9 23:21:34 10° W 23:24:40 86° N 23:25:23 50° E
Cosmos 1048 Rocket 4.4 23:20:39 10° NNW 23:25:57 56° ENE 23:28:25 30° SE
Cosmos 1125 Rocket 3.6 23:23:43 26° S 23:26:39 61° ESE 23:31:54 10° NNE
Cosmos 2221 Rocket 4.1 23:25:44 10° N 23:30:09 47° ENE 23:31:33 35° SE
Cosmos 1709 Rocket 4.0 23:27:43 27° SSE 23:31:05 64° E 23:37:07 10° NNE
Spot 4 3.9 23:29:24 34° SE 23:31:27 68° ENE 23:36:18 10° N
Cosmos 2237 Rocket 2.7 23:29:44 10° NW 23:35:15 51° WSW 23:38:17 26° S
Cosmos 1900 4.3 23:31:47 10° NNW 23:36:46 83° WSW 23:38:38 39° SSE
OAO 2 Rocket 4.0 23:32:40 10° WSW 23:37:29 35° S 23:38:02 34° S
Cosmos 1869 3.7 23:33:43 10° NNW 23:37:42 59° W 23:39:13 34° SSW
Cosmos 372 Rocket 4.4 23:36:14 35° SE 23:37:44 44° ESE 23:42:41 10° NNE
Cosmos 389 Rocket 3.6 23:34:45 10° N 23:37:57 30° ENE 23:38:11 30° E
Cosmos 1626 3.0 23:36:48 23° SW 23:38:51 46° WNW 23:42:30 10° N
Cosmos 2082 4.4 23:36:52 10° SW 23:42:28 54° WNW 23:48:06 10° NNE
Cosmos 1862 Rocket 4.4 23:38:56 10° NNW 23:43:04 44° W 23:45:05 26° SSW
CARTOSAT-1 3.7 23:42:07 37° S 23:43:41 65° WSW 23:48:00 10° NNW
ATLAS 2AS CENTAUR R/B 3.2 23:42:14 10° SW 23:49:46 73° NW 23:57:54 10° NNE
IGS 5A 3.8 23:50:56 41° SSW 23:52:09 59° W 23:56:18 10° NNW
Cosmos 44 4.4 23:55:07 30° ESE 23:55:07 30° ESE 23:59:45 10° NE
